• In Deutschland
  • Länderverzeichnis
  • Für 7 Tage
  • Wassertemperatur
  • Satellitenkarten
  • Wetterkarte
  • Widgets
  • user-avatar
    Anmelden

    Stündliche Wetter Suhl

    Heute, 21 August, Dienstag

    Zeit Temperatur Niederschläge Wind Luftdruck Luftfeuchtigkeit
    00:00 +18°C° 0 mm 1 m/S 719 mmHg 87%
    01:00 +18°C° 0 mm 1 m/S 719 mmHg 87%
    02:00 +16°C° 0 mm 1 m/S 719 mmHg 88%
    03:00 +16°C° 0 mm 1 m/S 719 mmHg 88%
    04:00 +15°C° 0 mm 0 m/S 719 mmHg 88%
    05:00 +16°C° 0 mm 1 m/S 719 mmHg 88%
    06:00 +18°C° 0 mm 1 m/S 720 mmHg 87%
    07:00 +18°C° 0 mm 1 m/S 720 mmHg 86%
    08:00 +19°C° 0,1 mm 1 m/S 720 mmHg 82%
    09:00 +20°C° 0,1 mm 1 m/S 720 mmHg 78%
    10:00 +21°C° 0,1 mm 1 m/S 721 mmHg 74%
    11:00 +22°C° 0,1 mm 1 m/S 721 mmHg 69%
    12:00 +23°C° 0,1 mm 1 m/S 721 mmHg 64%
    13:00 +24°C° 0,1 mm 2 m/S 720 mmHg 59%
    14:00 +25°C° 0 mm 2 m/S 720 mmHg 57%
    15:00 +25°C° 0 mm 2 m/S 720 mmHg 56%
    16:00 +25°C° 0 mm 2 m/S 719 mmHg 55%
    17:00 +24°C° 0 mm 2 m/S 719 mmHg 60%
    18:00 +21°C° 0 mm 2 m/S 719 mmHg 66%
    19:00 +20°C° 0 mm 2 m/S 719 mmHg 72%
    20:00 +19°C° 0 mm 2 m/S 719 mmHg 75%
    21:00 +18°C° 0 mm 2 m/S 719 mmHg 77%
    22:00 +17°C° 0 mm 2 m/S 719 mmHg 80%
    23:00 +17°C° 0 mm 2 m/S 719 mmHg 81%

    Morgen, 22 August, Mittwoch

    Zeit Temperatur Niederschläge Wind Luftdruck Luftfeuchtigkeit
    00:00 +16°C° 0 mm 1 m/S 719 mmHg 82%
    01:00 +16°C° 0 mm 1 m/S 719 mmHg 83%
    02:00 +16°C° 0 mm 1 m/S 719 mmHg 85%
    03:00 +15°C° 0 mm 1 m/S 719 mmHg 87%
    04:00 +15°C° 0 mm 1 m/S 718 mmHg 89%
    05:00 +16°C° 0 mm 1 m/S 718 mmHg 85%
    06:00 +18°C° 0 mm 1 m/S 719 mmHg 82%
    07:00 +19°C° 0 mm 1 m/S 719 mmHg 79%
    08:00 +21°C° 0 mm 1 m/S 719 mmHg 72%
    09:00 +23°C° 0 mm 1 m/S 719 mmHg 65%
    10:00 +25°C° 0 mm 1 m/S 719 mmHg 58%
    11:00 +26°C° 0 mm 1 m/S 719 mmHg 54%
    12:00 +27°C° 0 mm 1 m/S 719 mmHg 51%
    13:00 +28°C° 0 mm 1 m/S 719 mmHg 47%
    14:00 +28°C° 0 mm 1 m/S 718 mmHg 48%
    15:00 +27°C° 0 mm 1 m/S 718 mmHg 50%
    16:00 +27°C° 0 mm 1 m/S 717 mmHg 51%
    17:00 +26°C° 0 mm 1 m/S 717 mmHg 56%
    18:00 +24°C° 0 mm 1 m/S 717 mmHg 62%
    19:00 +23°C° 0 mm 1 m/S 717 mmHg 67%
    20:00 +22°C° 0 mm 1 m/S 717 mmHg 70%
    21:00 +21°C° 0 mm 1 m/S 717 mmHg 73%
    22:00 +20°C° 0 mm 1 m/S 717 mmHg 76%
    23:00 +20°C° 0 mm 1 m/S 717 mmHg 77%

    übermorgen, 23 August, Donnerstag

    Zeit Temperatur Niederschläge Wind Luftdruck Luftfeuchtigkeit
    00:00 +19°C° 0 mm 1 m/S 717 mmHg 79%
    01:00 +17°C° 0 mm 0 m/S 716 mmHg 81%
    02:00 +16°C° 0 mm 0 m/S 716 mmHg 82%
    03:00 +16°C° 0 mm 0 m/S 716 mmHg 83%
    04:00 +16°C° 0 mm 0 m/S 716 mmHg 85%
    05:00 +17°C° 0 mm 0 m/S 716 mmHg 82%
    06:00 +18°C° 0 mm 0 m/S 716 mmHg 79%
    07:00 +19°C° 0 mm 0 m/S 716 mmHg 77%
    08:00 +22°C° 0,1 mm 1 m/S 716 mmHg 71%
    09:00 +24°C° 0,1 mm 1 m/S 717 mmHg 65%
    10:00 +26°C° 0,1 mm 2 m/S 717 mmHg 59%
    11:00 +27°C° 0,2 mm 2 m/S 716 mmHg 55%
    12:00 +27°C° 0,2 mm 2 m/S 716 mmHg 52%
    13:00 +28°C° 0,2 mm 3 m/S 716 mmHg 48%
    14:00 +28°C° 0,1 mm 2 m/S 716 mmHg 47%
    15:00 +28°C° 0,1 mm 2 m/S 715 mmHg 46%
    16:00 +28°C° 0,1 mm 2 m/S 715 mmHg 44%
    17:00 +27°C° 0 mm 2 m/S 715 mmHg 50%
    18:00 +25°C° 0 mm 2 m/S 714 mmHg 56%
    19:00 +23°C° 0 mm 1 m/S 714 mmHg 62%
    20:00 +22°C° 0 mm 1 m/S 714 mmHg 65%
    21:00 +21°C° 0 mm 1 m/S 714 mmHg 67%
    22:00 +20°C° 0 mm 1 m/S 714 mmHg 70%
    23:00 +19°C° 0 mm 1 m/S 714 mmHg 73%

    24 August, Freitag

    Zeit Temperatur Niederschläge Wind Luftdruck Luftfeuchtigkeit
    00:00 +19°C° 0 mm 1 m/S 714 mmHg 77%
    01:00 +18°C° 0 mm 1 m/S 713 mmHg 81%
    02:00 +18°C° 0 mm 1 m/S 713 mmHg 84%
    03:00 +16°C° 0 mm 1 m/S 713 mmHg 88%
    04:00 +16°C° 0 mm 1 m/S 713 mmHg 91%
    05:00 +16°C° 0,1 mm 2 m/S 713 mmHg 89%
    06:00 +16°C° 0,1 mm 2 m/S 713 mmHg 88%
    07:00 +16°C° 0,1 mm 3 m/S 713 mmHg 86%
    08:00 +17°C° 0 mm 3 m/S 714 mmHg 76%
    09:00 +18°C° 0 mm 4 m/S 714 mmHg 66%
    10:00 +19°C° 0 mm 4 m/S 714 mmHg 56%
    11:00 +20°C° 0 mm 5 m/S 714 mmHg 54%
    12:00 +20°C° 0 mm 5 m/S 714 mmHg 52%
    13:00 +21°C° 0 mm 5 m/S 714 mmHg 50%
    14:00 +20°C° 0 mm 5 m/S 714 mmHg 51%
    15:00 +19°C° 0 mm 5 m/S 714 mmHg 53%
    16:00 +17°C° 0 mm 5 m/S 714 mmHg 54%
    17:00 +17°C° 0 mm 4 m/S 714 mmHg 57%
    18:00 +16°C° 0 mm 3 m/S 714 mmHg 60%
    19:00 +15°C° 0 mm 2 m/S 715 mmHg 62%
    20:00 +13°C° 0 mm 2 m/S 715 mmHg 64%
    21:00 +12°C° 0 mm 2 m/S 715 mmHg 67%
    22:00 +10°C° 0 mm 2 m/S 715 mmHg 69%
    23:00 +10°C° 0 mm 1 m/S 715 mmHg 71%

    25 August, Samstag

    Zeit Temperatur Niederschläge Wind Luftdruck Luftfeuchtigkeit
    00:00 +9°C° 0 mm 1 m/S 715 mmHg 72%
    01:00 +9°C° 0 mm 1 m/S 715 mmHg 74%
    02:00 +8°C° 0 mm 1 m/S 715 mmHg 75%
    03:00 +8°C° 0 mm 1 m/S 715 mmHg 77%
    04:00 +8°C° 0 mm 1 m/S 715 mmHg 78%
    05:00 +8°C° 0 mm 1 m/S 715 mmHg 75%
    06:00 +9°C° 0 mm 1 m/S 715 mmHg 72%
    07:00 +10°C° 0 mm 1 m/S 715 mmHg 69%
    08:00 +12°C° 0 mm 2 m/S 715 mmHg 63%
    09:00 +13°C° 0 mm 2 m/S 715 mmHg 56%
    10:00 +14°C° 0 mm 3 m/S 715 mmHg 50%
    11:00 +16°C° 0 mm 3 m/S 715 mmHg 47%
    12:00 +16°C° 0 mm 3 m/S 714 mmHg 44%
    13:00 +17°C° 0 mm 3 m/S 714 mmHg 41%
    14:00 +16°C° 0,1 mm 3 m/S 714 mmHg 45%
    15:00 +16°C° 0,1 mm 3 m/S 713 mmHg 49%
    16:00 +14°C° 0,1 mm 3 m/S 713 mmHg 54%
    17:00 +14°C° 0,1 mm 2 m/S 713 mmHg 58%
    18:00 +13°C° 0,1 mm 2 m/S 712 mmHg 62%
    19:00 +12°C° 0,1 mm 2 m/S 712 mmHg 67%
    20:00 +10°C° 0 mm 2 m/S 712 mmHg 71%
    21:00 +9°C° 0 mm 2 m/S 712 mmHg 75%
    22:00 +8°C° 0 mm 2 m/S 711 mmHg 79%
    23:00 +9°C° 0,1 mm 1 m/S 711 mmHg 81%

    26 August, Sonntag

    Zeit Temperatur Niederschläge Wind Luftdruck Luftfeuchtigkeit
    00:00 +9°C° 0,1 mm 1 m/S 711 mmHg 82%
    01:00 +9°C° 0,1 mm 1 m/S 711 mmHg 83%
    02:00 +8°C° 0 mm 1 m/S 710 mmHg 86%
    03:00 +8°C° 0 mm 1 m/S 710 mmHg 89%
    04:00 +7°C° 0 mm 1 m/S 710 mmHg 91%
    05:00 +8°C° 0,1 mm 1 m/S 710 mmHg 89%
    06:00 +9°C° 0,1 mm 1 m/S 709 mmHg 86%
    07:00 +9°C° 0,1 mm 1 m/S 709 mmHg 83%
    08:00 +11°C° 0,1 mm 1 m/S 710 mmHg 76%
    09:00 +12°C° 0,1 mm 2 m/S 710 mmHg 69%
    10:00 +14°C° 0,1 mm 2 m/S 710 mmHg 62%
    11:00 +14°C° 0,1 mm 2 m/S 710 mmHg 60%
    12:00 +14°C° 0,1 mm 3 m/S 710 mmHg 58%
    13:00 +16°C° 0,1 mm 3 m/S 711 mmHg 56%
    14:00 +14°C° 0,4 mm 3 m/S 711 mmHg 62%
    15:00 +14°C° 0,4 mm 3 m/S 711 mmHg 67%
    16:00 +13°C° 0,4 mm 3 m/S 712 mmHg 73%
    17:00 +12°C° 0,2 mm 3 m/S 712 mmHg 77%
    18:00 +13°C° 0,2 mm 2 m/S 713 mmHg 80%
    19:00 +12°C° 0,2 mm 2 m/S 713 mmHg 84%
    20:00 +10°C° 0 mm 2 m/S 714 mmHg 86%
    21:00 +9°C° 0 mm 2 m/S 714 mmHg 89%
    22:00 +9°C° 0 mm 2 m/S 715 mmHg 91%
    23:00 +8°C° 0 mm 2 m/S 715 mmHg 92%
    Mehr zeigen